Other Public Products
Issued by NWS Charleston, SC

Current Version | Previous Version | Graphics & Text | Print | Product List | Glossary On
Versions: 1 2 3 4 5 6 7 8 9 10 11 12 13 14 15 16 17 18 19 20 21 22 23 24 25 26 27 28 29 30 31 32 33 34 35 36 37 38 39 40 41 42 43 44 45 46 47 48 49 50
000
FPUS82 KCHS 232012
OPUCHS

TEST...KCHS/KSAV Gateway Observations...TEST
National Weather Service Charleston SC
400 PM EDT SUN JUL 23 2017

NOTE: "fair" indicates few or no clouds below 12,000 feet with no
significant weather and/or obstructions to visibility.

SCZ050-WAZ558-NCZ071-TXZ119-213-PAZ071-DCZ001-FLZ074-172-MI076-
NYZ176-178-MAZ016-IL014-TNZ027-NJZ106-GAZ044-MD014-232100-

...Gateway Observations for Charleston International...

CITY           SKY/WX    TMP DP  RH WIND       PRES   REMARKS
Chas Airport   CLOUDY    86  77  74 S18       29.91S THUNDER HX  97
Seattle        CLOUDY    71  57  61 NW9       30.08F
Charlotte      PTSUNNY   82  69  64 NW14G29   29.86S THUNDER
Dallas DFW     MOSUNNY   99  69  37 S9        29.84F HX 105
Dallas Love    MOSUNNY  100  69  36 SW8       29.85F HX 106
Philladelphia  PTSUNNY   89  71  55 E9        29.78S HX  95
Wash National  PTSUNNY   80  76  87 S10       29.80S
Baltimore      CLOUDY    83  74  74 S7        29.76F
Miami          CLOUDY    87  74  64 SE10      30.03F HX  95
Detroit        CLOUDY    81  68  64 NW6       29.76F
Newark         CLOUDY    80  66  62 VRB6      29.81F
Laguardia      CLOUDY    76  70  82 NE8       29.81F
J F K          PTSUNNY   79  70  74 SE12      29.82F
Boston Logan   CLOUDY    68  53  58 E12       29.89F
Ft. Lauderdale CLOUDY    90  74  59 SE17      30.02F HX  99
Chicago O`Hare MOSUNNY   88  62  41 W8        29.78S
Chicago Midway MOSUNNY   90  61  37 W17       29.77F HX  90
Houston Bush   CLOUDY    84  74  71 SE8       29.91F HX  91
Houston Hobby  CLOUDY    95  71  45 SW12      29.91F THUNDER HX 102
Nashville      PTSUNNY   94  74  52 SW7       29.85F HX 104
Atlanta        MOSUNNY   90  71  53 S8        29.91F HX  96

$$

GAZ044-118-TXZ119-213-NCZ071-DCZ001-MDZ014-506-PAZ021-071-NJZ106-
NYZ176-178-MAZ106-OHZ011-021-055-MIZ076-KYZ091-ILZ014-INZ047-
MNZ060-ONZ431-232100-

...Gateway Observations for Savannah International...

CITY           SKY/WX    TMP DP  RH WIND       PRES   REMARKS
Savannah Arpt  PTSUNNY   89  72  56 S23G31    29.94R THUNDER HX  96
Atlanta        MOSUNNY   90  71  53 S8        29.91F HX  96
Charlotte      PTSUNNY   82  69  64 NW14G29   29.86S THUNDER
Dallas DFW     MOSUNNY   99  69  37 S9        29.84F HX 105
Houston Bush   CLOUDY    84  74  71 SE8       29.91F HX  91
Wash National  PTSUNNY   80  76  87 S10       29.80S
Wash Dulles    CLOUDY    81  73  76 S12       29.79S
Baltimore      CLOUDY    83  74  74 S7        29.76F
Philadelphia   PTSUNNY   89  71  55 E9        29.78S HX  95
Newark         CLOUDY    80  66  62 VRB6      29.81F
Laguardia      CLOUDY    76  70  82 NE8       29.81F
J F K          PTSUNNY   79  70  74 SE12      29.82F
Boston         CLOUDY    68  53  58 E12       29.89F
Pittsburg      CLOUDY    76  71  85 SW10      29.79F
Akron          CLOUDY    84  67  56 W6        29.78F
Cleveland      CLOUDY    82  69  64 NW9       29.78F
Cincinnati     MOSUNNY   83  70  64 W8        29.83F
Columbus       CLOUDY    77  72  83 SW5       29.80R
Detroit        CLOUDY    81  68  64 NW6       29.76F
Chicago O`Hare MOSUNNY   88  62  41 W8        29.78S
Minneapolis    PTSUNNY   75  59  57 N12       29.94S
Indianapolis   CLOUDY    71  68  90 W14       29.81R THUNDER
Toronto Canada CLOUDY    73  64  73 E13       29.77S

$$




USA.gov is the U.S. government's official web portal to all federal, state and local government web resources and services.